Sierra Vista, AZ

1:31 AM MST on November 23, 2017 (GMT -0700)
Sierra Vista Municipal-Libby Army Air Field

Weather History for KFHU - August, 2013

Change the Weather History Date:

Saturday, August 17, 2013

  Actual Average Record
Temperature  
Mean Temperature 82 °F -  
Max Temperature 93 °F 86 °F 94 °F (1982)
Min Temperature 71 °F 67 °F 58 °F (1984)
Cooling Degree Days 17    
Growing Degree Days 32 (Base 50)    
Moisture  
Dew Point 51 °F    
Average Humidity 35    
Maximum Humidity 61    
Minimum Humidity 18    
Precipitation  
Precipitation 0.00 in - - ()
Sea Level Pressure  
Sea Level Pressure 29.95 in    
Wind  
Wind Speed 6 mph (South)    
Max Wind Speed 15 mph    
Max Gust Speed 20 mph    
Visibility 10 miles    
Events Thunderstorm    
Averages and records for this station are not official NWS values.
T = Trace of Precipitation, MM = Missing Value Source: NWS Daily Summary

Daily Weather History Graph

Daily Weather History Graph

Search for Another Location

Airport or City:

Trip Planner

Search our weather history database for the weather conditions in past years. The results will help you decide how hot, cold, wet, or windy it might be!

Date:

Astronomy

Aug. 17, 2013 Rise Set
Actual Time 5:47 AM MST 7:02 PM MST
Civil Twilight 5:22 AM MST 7:27 PM MST
Nautical Twilight 4:52 AM MST 7:57 PM MST
Astronomical Twilight 4:20 AM MST 8:29 PM MST
Moon 4:14 PM MST (8/17) 2:01 AM MST (8/17)
Length of Visible Light 14h 05m
Length of Day
13h 14m
Waxing Gibbous, 85% of the Moon is Illuminated
Aug 17
Waxing Gibbous
Aug 20
Full
Aug 28
Last Quarter
Sep 5
New
Sep 12
First Quarter

Hourly Weather History & Observations

Time (MST) Temp. Heat Index Dew Point Humidity Pressure Visibility Wind Dir Wind Speed Gust Speed Precip Events Conditions
12:56 AM 73.9 °F - 55.9 °F 53% 29.99 in 10.0 mi SSE 5.8 mph - N/A   Clear
1:56 AM 73.0 °F - 57.9 °F 59% 29.98 in 10.0 mi SSW 8.1 mph - N/A   Clear
2:56 AM 73.0 °F - 55.9 °F 55% 29.97 in 10.0 mi South 5.8 mph - N/A   Clear
3:56 AM 72.0 °F - 57.0 °F 59% 29.97 in 10.0 mi Calm Calm - N/A   Clear
4:56 AM 71.1 °F - 57.0 °F 61% 29.97 in 10.0 mi SW 4.6 mph - N/A   Clear
5:56 AM 71.1 °F - 57.0 °F 61% 29.99 in 10.0 mi Calm Calm - N/A   Clear
6:56 AM 73.9 °F - 59.0 °F 59% 30.00 in 10.0 mi Calm Calm - N/A   Clear
7:56 AM 78.1 °F - 59.0 °F 52% 30.01 in 10.0 mi Calm Calm - N/A   Clear
8:56 AM 82.9 °F 82.8 °F 59.0 °F 44% 30.01 in 10.0 mi SE 4.6 mph - N/A   Clear
9:56 AM 87.1 °F 85.3 °F 55.0 °F 33% 30.01 in 10.0 mi SE 5.8 mph - N/A   Clear
10:56 AM 89.1 °F 86.9 °F 54.0 °F 30% 29.98 in 10.0 mi SE 5.8 mph - N/A   Clear
11:56 AM 91.9 °F - 50.0 °F 24% 29.96 in 10.0 mi ESE 10.4 mph 16.1 mph N/A   Clear
11:58 AM - - - N/A% - - North - - N/A   Unknown
12:56 PM 93.9 °F - 46.0 °F 19% 29.93 in 10.0 mi SSE 8.1 mph 17.3 mph N/A   Clear
1:56 PM 93.9 °F - 48.0 °F 21% 29.91 in 10.0 mi ESE 15.0 mph 19.6 mph N/A Thunderstorm Thunderstorm
2:25 PM 91.4 °F - 48.2 °F 23% 30.12 in 10.0 mi SSE 10.4 mph - N/A   Clear
2:56 PM 93.9 °F - 48.9 °F 21% 29.89 in 10.0 mi SE 8.1 mph - N/A   Clear
3:56 PM 93.9 °F - 46.9 °F 20% 29.86 in 10.0 mi Variable 6.9 mph - N/A   Partly Cloudy
4:56 PM 93.9 °F - 44.1 °F 18% 29.85 in 10.0 mi Calm Calm - N/A   Clear
5:56 PM 93.0 °F - 44.1 °F 18% 29.86 in 10.0 mi SSW 10.4 mph - N/A   Clear
6:56 PM 88.0 °F - 46.0 °F 23% 29.87 in 10.0 mi SW 8.1 mph - N/A   Clear
7:56 PM 86.0 °F - 45.0 °F 24% 29.88 in 10.0 mi SW 11.5 mph - N/A   Clear
8:56 PM 86.0 °F - 46.0 °F 25% 29.89 in 10.0 mi SW 11.5 mph - N/A   Clear
9:56 PM 84.9 °F - 45.0 °F 25% 29.90 in 10.0 mi WSW 8.1 mph - N/A   Clear
10:56 PM 82.9 °F - 46.0 °F 27% 29.91 in 10.0 mi West 12.7 mph - N/A   Partly Cloudy
11:56 PM 80.1 °F - 48.0 °F 32% 29.93 in 10.0 mi WNW 6.9 mph - N/A   Clear